This is the latest recevied weather packets stored in our database for station/object HA6IFZ-10. If no packets are shown the sender has not sent any weather packets the latest 10 day(s).
| Time | Temp. | Humidity | Pressure | Rain* | Wind** | Luminosity | Snow |
|---|---|---|---|---|---|---|---|
| 1777694563 | 8.89° C | 61% | 1031.9 hPa | - | - | - | - |
| 1777693662 | 8.89° C | 62% | 1032 hPa | - | - | - | - |
| 1777692762 | 8.89° C | 62% | 1032 hPa | - | - | - | - |
| 1777691862 | 9.44° C | 61% | 1031.8 hPa | - | - | - | - |
| 1777690962 | 9.44° C | 61% | 1031.9 hPa | - | - | - | - |
| 1777690066 | 10° C | 60% | 1031.9 hPa | - | - | - | - |
| 1777689162 | 9.44° C | 60% | 1031.9 hPa | - | - | - | - |
| 1777688262 | 9.44° C | 63% | 1032 hPa | - | - | - | - |
| 1777687362 | 9.44° C | 61% | 1032.1 hPa | - | - | - | - |
| 1777686462 | 10° C | 59% | 1032 hPa | - | - | - | - |
| 1777685562 | 10.56° C | 56% | 1032.1 hPa | - | - | - | - |
| 1777684661 | 10.56° C | 57% | 1032.2 hPa | - | - | - | - |
| 1777683761 | 10.56° C | 56% | 1032.2 hPa | - | - | - | - |
| 1777682860 | 10.56° C | 54% | 1032.4 hPa | - | - | - | - |
| 1777681960 | 10.56° C | 55% | 1032.4 hPa | - | - | - | - |
| 1777681060 | 10° C | 58% | 1032.6 hPa | - | - | - | - |
| 1777680007 | 9.44° C | 59% | 1032.4 hPa | - | - | - | - |
| 1777677128 | 10° C | 54% | 1032.9 hPa | - | - | - | - |
| 1777675673 | 10° C | 55% | 1032.9 hPa | - | - | - | - |
| 1777674773 | 9.44° C | 56% | 1032.9 hPa | - | - | - | - |
| 1777673873 | 8.89° C | 57% | 1033 hPa | - | - | - | - |
| 1777672973 | 8.33° C | 59% | 1033 hPa | - | - | - | - |
| 1777672073 | 8.33° C | 61% | 1033.1 hPa | - | - | - | - |
| 1777671173 | 8.33° C | 60% | 1033 hPa | - | - | - | - |
| 1777670272 | 8.89° C | 58% | 1033 hPa | - | - | - | - |
* Rain since midnight (hover to see other rain measurements)
** Current wind speed in m/s (hover to see current wind gust speed)